| time (UTC) | temp F | wind direction | speed MPH | gust MPH | rain 1hr in | rain 24hr in | rain mn in | humidity % | barometer mb |
| 20260902182529 | 86 | 81 | 3.0 | 15.0 | 0.00 | 0.00 | 0.00 | 20 | 1009.1 |
| 20260902182029 | 85 | 220 | 2.0 | 15.0 | 0.00 | 0.00 | 0.00 | 22 | 1009.3 |
| 20260902181553 | 85 | 336 | 3.0 | 15.0 | 0.00 | 0.00 | 0.00 | 22 | 1009.1 |
| 20260902181026 | 85 | 49 | 3.0 | 8.0 | 0.00 | 0.00 | 0.00 | 21 | 1009.2 |
| 20260902180527 | 85 | 40 | 2.0 | 10.0 | 0.00 | 0.00 | 0.00 | 22 | 1009.4 |
| 20260902180052 | 85 | 292 | 2.0 | 10.0 | 0.00 | 0.00 | 0.00 | 22 | 1009.6 |
| 20260902175526 | 86 | 338 | 4.0 | 16.0 | 0.00 | 0.00 | 0.00 | 21 | 1009.6 |
| 20260902175026 | 85 | 44 | 2.0 | 16.0 | 0.00 | 0.00 | 0.00 | 22 | 1009.9 |
| 20260902174545 | 85 | 47 | 4.0 | 14.0 | 0.00 | 0.00 | 0.00 | 23 | 1009.8 |
| 20260902174025 | 84 | 111 | 2.0 | 6.0 | 0.00 | 0.00 | 0.00 | 24 | 1010.0 |
| 20260902173531 | 85 | 324 | 2.0 | 7.0 | 0.00 | 0.00 | 0.00 | 25 | 1010.0 |
| 20260902173053 | 85 | 305 | 2.0 | 11.0 | 0.00 | 0.00 | 0.00 | 25 | 1010.0 |
| 20260902172527 | 84 | 32 | 4.0 | 11.0 | 0.00 | 0.00 | 0.00 | 24 | 1010.1 |
| 20260902172027 | 83 | 74 | 2.0 | 12.0 | 0.00 | 0.00 | 0.00 | 25 | 1010.1 |
| 20260902171601 | 84 | 52 | 3.0 | 12.0 | 0.00 | 0.00 | 0.00 | 23 | 1010.1 |
| 20260902171025 | 85 | 34 | 3.0 | 16.0 | 0.00 | 0.00 | 0.00 | 23 | 1010.0 |
| 20260902170528 | 85 | 289 | 4.0 | 16.0 | 0.00 | 0.00 | 0.00 | 23 | 1010.1 |
| 20260902170053 | 84 | 330 | 6.0 | 13.0 | 0.00 | 0.00 | 0.00 | 24 | 1010.1 |
| 20260902165527 | 84 | 72 | 6.0 | 12.0 | 0.00 | 0.00 | 0.00 | 25 | 1009.9 |
| 20260902165025 | 86 | 65 | 3.0 | 12.0 | 0.00 | 0.00 | 0.00 | 25 | 1009.7 |
| 20260902164553 | 85 | 238 | 5.0 | 12.0 | 0.00 | 0.00 | 0.00 | 25 | 1009.9 |
| 20260902164027 | 84 | 210 | 5.0 | 12.0 | 0.00 | 0.00 | 0.00 | 27 | 1009.9 |
| 20260902163526 | 84 | 221 | 6.0 | 12.0 | 0.00 | 0.00 | 0.00 | 29 | 1009.9 |
| 20260902163101 | 84 | 237 | 5.0 | 11.0 | 0.00 | 0.00 | 0.00 | 30 | 1010.1 |
| 20260902162526 | 83 | 218 | 5.0 | 9.0 | 0.00 | 0.00 | 0.00 | 31 | 1010.0 |
| 20260902162030 | 82 | 248 | 3.0 | 10.0 | 0.00 | 0.00 | 0.00 | 31 | 1010.1 |
| 20260902161544 | 82 | 263 | 4.0 | 10.0 | 0.00 | 0.00 | 0.00 | 33 | 1010.2 |
| 20260902161030 | 82 | 228 | 4.0 | 13.0 | 0.00 | 0.00 | 0.00 | 31 | 1010.1 |
| 20260902160529 | 82 | 227 | 7.0 | 13.0 | 0.00 | 0.00 | 0.00 | 31 | 1010.1 |
| 20260902160055 | 82 | 240 | 5.0 | 11.0 | 0.00 | 0.00 | 0.00 | 32 | 1010.2 |
| 20260902155528 | 82 | 243 | 3.0 | 11.0 | 0.00 | 0.00 | 0.00 | 31 | 1010.2 |
| 20260902155032 | 82 | 190 | 4.0 | 9.0 | 0.00 | 0.00 | 0.00 | 30 | 1010.3 |
| 20260902154549 | 82 | 251 | 4.0 | 9.0 | 0.00 | 0.00 | 0.00 | 31 | 1010.3 |
| 20260902154027 | 81 | 235 | 1.0 | 9.0 | 0.00 | 0.00 | 0.00 | 32 | 1010.4 |
| 20260902153526 | 81 | 222 | 2.0 | 9.0 | 0.00 | 0.00 | 0.00 | 33 | 1010.4 |
| 20260902153048 | 81 | 286 | 2.0 | 10.0 | 0.00 | 0.00 | 0.00 | 35 | 1010.4 |
| 20260902152525 | 80 | 275 | 3.0 | 10.0 | 0.00 | 0.00 | 0.00 | 36 | 1010.5 |
| 20260902152029 | 80 | 273 | 1.0 | 8.0 | 0.00 | 0.00 | 0.00 | 36 | 1010.4 |
| 20260902151551 | 79 | 248 | 2.0 | 8.0 | 0.00 | 0.00 | 0.00 | 35 | 1010.6 |
| 20260902151027 | 78 | 209 | 4.0 | 9.0 | 0.00 | 0.00 | 0.00 | 36 | 1010.4 |
| 20260902150526 | 78 | 252 | 4.0 | 9.0 | 0.00 | 0.00 | 0.00 | 36 | 1010.6 |
| 20260902150052 | 77 | 286 | 2.0 | 6.0 | 0.00 | 0.00 | 0.00 | 39 | 1010.7 |
| 20260902145529 | 76 | 360 | 2.0 | 5.0 | 0.00 | 0.00 | 0.00 | 40 | 1010.9 |
| 20260902145028 | 75 | 360 | 1.0 | 5.0 | 0.00 | 0.00 | 0.00 | 41 | 1010.8 |
| 20260902144549 | 75 | 0 | 2.0 | 5.0 | 0.00 | 0.00 | 0.00 | 41 | 1010.9 |
| 20260902144027 | 74 | 360 | 2.0 | 5.0 | 0.00 | 0.00 | 0.00 | 44 | 1010.9 |
| 20260902143527 | 72 | 360 | 1.0 | 3.0 | 0.00 | 0.00 | 0.00 | 46 | 1010.9 |
| 20260902143049 | 72 | 0 | 1.0 | 4.0 | 0.00 | 0.00 | 0.00 | 47 | 1011.0 |
| 20260902142527 | 71 | 360 | 1.0 | 4.0 | 0.00 | 0.00 | 0.00 | 49 | 1011.0 |
| 20260902142028 | 69 | 0 | 0.0 | 4.0 | 0.00 | 0.00 | 0.00 | 50 | 1011.1 |
| 20260902141542 | 68 | 0 | 0.0 | 4.0 | 0.00 | 0.00 | 0.00 | 54 | 1011.2 |
| 20260902141026 | 67 | 0 | 0.0 | 4.0 | 0.00 | 0.00 | 0.00 | 56 | 1011.1 |
| 20260902140526 | 66 | 360 | 2.0 | 4.0 | 0.00 | 0.00 | 0.00 | 53 | 1011.2 |
| 20260902140052 | 65 | 360 | 0.0 | 2.0 | 0.00 | 0.00 | 0.00 | 56 | 1011.4 |
| 20260902135527 | 63 | 0 | 0.0 | 3.0 | 0.00 | 0.00 | 0.00 | 59 | 1011.4 |
| 20260902135027 | 62 | 0 | 0.0 | 6.0 | 0.00 | 0.00 | 0.00 | 60 | 1011.3 |
| 20260902134554 | 61 | 360 | 2.0 | 6.0 | 0.00 | 0.00 | 0.00 | 61 | 1011.4 |
| 20260902134029 | 60 | 360 | 2.0 | 8.0 | 0.00 | 0.00 | 0.00 | 63 | 1011.4 |
| 20260902133528 | 59 | 360 | 3.0 | 9.0 | 0.00 | 0.00 | 0.00 | 65 | 1011.4 |
| 20260902133048 | 58 | 360 | 5.0 | 9.0 | 0.00 | 0.00 | 0.00 | 66 | 1011.5 |
| 20260902132527 | 57 | 360 | 3.0 | 8.0 | 0.00 | 0.00 | 0.00 | 67 | 1011.6 |
| 20260902132025 | 56 | 360 | 2.0 | 6.0 | 0.00 | 0.00 | 0.00 | 68 | 1011.7 |
| 20260902131548 | 55 | 360 | 3.0 | 6.0 | 0.00 | 0.00 | 0.00 | 70 | 1011.6 |
| 20260902131028 | 54 | 360 | 2.0 | 5.0 | 0.00 | 0.00 | 0.00 | 71 | 1011.7 |
| 20260902130528 | 54 | 360 | 3.0 | 5.0 | 0.00 | 0.00 | 0.00 | 70 | 1011.6 |
| 20260902130048 | 55 | 360 | 2.0 | 5.0 | 0.00 | 0.00 | 0.00 | 69 | 1011.6 |
| 20260902125528 | 55 | 360 | 1.0 | 4.0 | 0.00 | 0.00 | 0.00 | 68 | 1011.5 |
| 20260902125028 | 56 | 360 | 2.0 | 6.0 | 0.00 | 0.00 | 0.00 | 68 | 1011.5 |
| 20260902124547 | 56 | 360 | 2.0 | 6.0 | 0.00 | 0.00 | 0.00 | 67 | 1011.5 |
| 20260902124025 | 56 | 360 | 2.0 | 5.0 | 0.00 | 0.00 | 0.00 | 68 | 1011.4 |
| 20260902123525 | 55 | 360 | 2.0 | 5.0 | 0.00 | 0.00 | 0.00 | 70 | 1011.5 |
| 20260902123104 | 54 | 360 | 3.0 | 5.0 | 0.00 | 0.00 | 0.00 | 70 | 1011.4 |
| 20260902122526 | 55 | 360 | 0.0 | 4.0 | 0.00 | 0.00 | 0.00 | 71 | 1011.4 |
| 20260902122028 | 55 | 360 | 2.0 | 5.0 | 0.00 | 0.00 | 0.00 | 71 | 1011.3 |
| 20260902121559 | 54 | 360 | 2.0 | 5.0 | 0.00 | 0.00 | 0.00 | 72 | 1011.3 |
| 20260902121026 | 54 | 360 | 2.0 | 5.0 | 0.00 | 0.00 | 0.00 | 71 | 1011.4 |
| 20260902120525 | 54 | 360 | 1.0 | 5.0 | 0.00 | 0.00 | 0.00 | 70 | 1011.4 |
| 20260902120105 | 55 | 360 | 3.0 | 5.0 | 0.00 | 0.00 | 0.00 | 70 | 1011.4 |
| 20260902115525 | 54 | 0 | 0.0 | 0.0 | 0.00 | 0.00 | 0.00 | 71 | 1011.3 |
| 20260902115026 | 54 | 0 | 0.0 | 4.0 | 0.00 | 0.00 | 0.00 | 72 | 1011.2 |
| 20260902114550 | 54 | 0 | 0.0 | 4.0 | 0.00 | 0.00 | 0.00 | 71 | 1011.2 |
| 20260902114026 | 54 | 0 | 1.0 | 5.0 | 0.00 | 0.00 | 0.00 | 71 | 1011.0 |
| 20260902113526 | 54 | 0 | 2.0 | 5.0 | 0.00 | 0.00 | 0.00 | 72 | 1011.2 |
| 20260902113047 | 53 | 360 | 2.0 | 4.0 | 0.00 | 0.00 | 0.00 | 72 | 1011.2 |
| 20260902112525 | 54 | 360 | 0.0 | 3.0 | 0.00 | 0.00 | 0.00 | 72 | 1011.1 |
| 20260902112028 | 54 | 0 | 0.0 | 0.0 | 0.00 | 0.00 | 0.00 | 72 | 1011.2 |
| 20260902111602 | 54 | 0 | 0.0 | 0.0 | 0.00 | 0.00 | 0.00 | 72 | 1011.2 |
| 20260902111026 | 54 | 0 | 0.0 | 0.0 | 0.00 | 0.00 | 0.00 | 72 | 1011.2 |
| 20260902110528 | 54 | 0 | 0.0 | 0.0 | 0.00 | 0.00 | 0.00 | 71 | 1011.2 |
| 20260902110049 | 54 | 0 | 0.0 | 0.0 | 0.00 | 0.00 | 0.00 | 72 | 1011.2 |
| 20260902105528 | 54 | 0 | 0.0 | 0.0 | 0.00 | 0.00 | 0.00 | 73 | 1011.3 |
| 20260902105028 | 53 | 0 | 0.0 | 0.0 | 0.00 | 0.00 | 0.00 | 74 | 1011.4 |
| 20260902104549 | 53 | 0 | 0.0 | 3.0 | 0.00 | 0.00 | 0.00 | 74 | 1011.4 |
| 20260902104026 | 53 | 0 | 0.0 | 3.0 | 0.00 | 0.00 | 0.00 | 73 | 1011.4 |
| 20260902103525 | 54 | 360 | 1.0 | 3.0 | 0.00 | 0.00 | 0.00 | 73 | 1011.4 |
| 20260902103047 | 54 | 0 | 0.0 | 2.0 | 0.00 | 0.00 | 0.00 | 73 | 1011.4 |
| 20260902102526 | 54 | 0 | 0.0 | 2.0 | 0.00 | 0.00 | 0.00 | 73 | 1011.3 |
| 20260902102026 | 54 | 0 | 0.0 | 4.0 | 0.00 | 0.00 | 0.00 | 72 | 1011.3 |
| 20260902101544 | 55 | 360 | 0.0 | 4.0 | 0.00 | 0.00 | 0.00 | 70 | 1011.4 |
| 20260902101030 | 55 | 360 | 2.0 | 4.0 | 0.00 | 0.00 | 0.00 | 71 | 1011.4 |
| 20260902100529 | 55 | 360 | 1.0 | 4.0 | 0.00 | 0.00 | 0.00 | 70 | 1011.5 |
| 20260902095526 | 56 | 0 | 0.0 | 6.0 | 0.00 | 0.00 | 0.00 | 69 | 1011.5 |
| 20260902095027 | 57 | 360 | 2.0 | 6.0 | 0.00 | 0.00 | 0.00 | 68 | 1011.5 |
| 20260902094550 | 58 | 360 | 2.0 | 6.0 | 0.00 | 0.00 | 0.00 | 67 | 1011.5 |
| 20260902094026 | 57 | 360 | 3.0 | 6.0 | 0.00 | 0.00 | 0.00 | 68 | 1011.5 |
| 20260902093526 | 57 | 360 | 3.0 | 6.0 | 0.00 | 0.00 | 0.00 | 67 | 1011.5 |
| 20260902093045 | 58 | 360 | 4.0 | 8.0 | 0.00 | 0.00 | 0.00 | 67 | 1011.4 |
| 20260902092525 | 58 | 360 | 3.0 | 8.0 | 0.00 | 0.00 | 0.00 | 66 | 1011.5 |
| 20260902092026 | 58 | 360 | 4.0 | 8.0 | 0.00 | 0.00 | 0.00 | 66 | 1011.7 |
| 20260902091555 | 58 | 360 | 4.0 | 8.0 | 0.00 | 0.00 | 0.00 | 66 | 1011.6 |
| 20260902091028 | 58 | 360 | 3.0 | 8.0 | 0.00 | 0.00 | 0.00 | 65 | 1011.6 |
| 20260902090528 | 59 | 360 | 3.0 | 6.0 | 0.00 | 0.00 | 0.00 | 65 | 1011.6 |
| 20260902090051 | 59 | 360 | 3.0 | 6.0 | 0.00 | 0.00 | 0.00 | 64 | 1011.5 |
| 20260902085524 | 59 | 360 | 3.0 | 6.0 | 0.00 | 0.00 | 0.00 | 64 | 1011.6 |
| 20260902085025 | 59 | 360 | 3.0 | 6.0 | 0.00 | 0.00 | 0.00 | 64 | 1011.6 |
| 20260902084547 | 60 | 360 | 2.0 | 6.0 | 0.00 | 0.00 | 0.00 | 64 | 1011.7 |
| 20260902084026 | 59 | 360 | 2.0 | 5.0 | 0.00 | 0.00 | 0.00 | 64 | 1011.8 |
| 20260902083525 | 59 | 360 | 1.0 | 5.0 | 0.00 | 0.00 | 0.00 | 65 | 1011.8 |
| 20260902083052 | 59 | 360 | 2.0 | 5.0 | 0.00 | 0.00 | 0.00 | 65 | 1011.8 |
| 20260902082526 | 59 | 360 | 3.0 | 5.0 | 0.00 | 0.00 | 0.00 | 65 | 1011.8 |
| 20260902082026 | 58 | 360 | 2.0 | 5.0 | 0.00 | 0.00 | 0.00 | 66 | 1011.8 |
| 20260902081542 | 58 | 360 | 3.0 | 5.0 | 0.00 | 0.00 | 0.00 | 66 | 1011.8 |
| 20260902081026 | 57 | 360 | 2.0 | 4.0 | 0.00 | 0.00 | 0.00 | 67 | 1011.8 |
| 20260902080528 | 56 | 360 | 3.0 | 4.0 | 0.00 | 0.00 | 0.00 | 68 | 1012.0 |
| 20260902080054 | 56 | 360 | 1.0 | 4.0 | 0.00 | 0.00 | 0.00 | 68 | 1012.1 |
| 20260902075525 | 56 | 360 | 2.0 | 5.0 | 0.00 | 0.00 | 0.00 | 69 | 1011.9 |
| 20260902075025 | 55 | 360 | 3.0 | 5.0 | 0.00 | 0.00 | 0.00 | 71 | 1012.0 |
| 20260902074550 | 54 | 360 | 2.0 | 4.0 | 0.00 | 0.00 | 0.00 | 69 | 1012.0 |
| 20260902074026 | 55 | 0 | 0.0 | 3.0 | 0.00 | 0.00 | 0.00 | 67 | 1012.1 |
| 20260902073525 | 56 | 360 | 0.0 | 3.0 | 0.00 | 0.00 | 0.00 | 68 | 1012.1 |
| 20260902073048 | 56 | 0 | 0.0 | 0.0 | 0.00 | 0.00 | 0.00 | 68 | 1012.2 |
| 20260902072526 | 56 | 0 | 0.0 | 2.0 | 0.00 | 0.00 | 0.00 | 68 | 1012.1 |
| 20260902072025 | 57 | 0 | 0.0 | 2.0 | 0.00 | 0.00 | 0.00 | 66 | 1012.2 |
| 20260902071552 | 57 | 360 | 0.0 | 0.0 | 0.00 | 0.00 | 0.00 | 65 | 1012.1 |
| 20260902071028 | 59 | 0 | 0.0 | 3.0 | 0.00 | 0.00 | 0.00 | 64 | 1012.1 |
| 20260902070528 | 59 | 0 | 0.0 | 3.0 | 0.00 | 0.00 | 0.00 | 63 | 1012.2 |
| 20260902070054 | 60 | 0 | 1.0 | 3.0 | 0.00 | 0.00 | 0.00 | 63 | 1012.3 |
| 20260902065531 | 60 | 0 | 1.0 | 3.0 | 0.00 | 0.00 | 0.00 | 63 | 1012.3 |
| 20260902065026 | 60 | 360 | 1.0 | 4.0 | 0.00 | 0.00 | 0.00 | 62 | 1012.3 |
| 20260902064553 | 60 | 0 | 0.0 | 4.0 | 0.00 | 0.00 | 0.00 | 62 | 1012.3 |
| 20260902064027 | 61 | 360 | 2.0 | 5.0 | 0.00 | 0.00 | 0.00 | 61 | 1012.2 |
| 20260902063526 | 61 | 360 | 2.0 | 5.0 | 0.00 | 0.00 | 0.00 | 61 | 1012.1 |
| 20260902063057 | 61 | 360 | 2.0 | 4.0 | 0.00 | 0.00 | 0.00 | 61 | 1012.3 |
| 20260902062530 | 61 | 360 | 2.0 | 4.0 | 0.00 | 0.00 | 0.00 | 62 | 1012.2 |
| 20260902062026 | 61 | 360 | 1.0 | 3.0 | 0.00 | 0.00 | 0.00 | 61 | 1012.3 |
| 20260902061549 | 61 | 0 | 0.0 | 1.0 | 0.00 | 0.00 | 0.00 | 61 | 1012.4 |
| 20260902061028 | 61 | 0 | 0.0 | 4.0 | 0.00 | 0.00 | 0.00 | 61 | 1012.3 |
| 20260902060528 | 61 | 0 | 2.0 | 4.0 | 0.00 | 0.00 | 0.00 | 62 | 1012.4 |
| 20260902060053 | 60 | 360 | 0.0 | 3.0 | 0.00 | 0.00 | 0.00 | 62 | 1012.3 |
| 20260902055528 | 60 | 360 | 0.0 | 2.0 | 0.00 | 0.00 | 0.00 | 62 | 1012.2 |
| 20260902055025 | 60 | 0 | 0.0 | 2.0 | 0.00 | 0.00 | 0.00 | 62 | 1012.3 |
| 20260902054550 | 60 | 360 | 0.0 | 3.0 | 0.00 | 0.00 | 0.00 | 61 | 1012.4 |
| 20260902054028 | 60 | 0 | 0.0 | 3.0 | 0.00 | 0.00 | 0.00 | 61 | 1012.4 |
| 20260902053526 | 61 | 0 | 1.0 | 3.0 | 0.00 | 0.00 | 0.00 | 60 | 1012.4 |
| 20260902053049 | 61 | 360 | 1.0 | 3.0 | 0.00 | 0.00 | 0.00 | 60 | 1012.3 |
| 20260902052528 | 61 | 0 | 0.0 | 3.0 | 0.00 | 0.00 | 0.00 | 60 | 1012.3 |
| 20260902052029 | 61 | 360 | 1.0 | 3.0 | 0.00 | 0.00 | 0.00 | 60 | 1012.3 |
| 20260902051546 | 61 | 0 | 0.0 | 3.0 | 0.00 | 0.00 | 0.00 | 60 | 1012.3 |
| 20260902051025 | 61 | 0 | 1.0 | 3.0 | 0.00 | 0.00 | 0.00 | 60 | 1012.3 |
| 20260902050528 | 61 | 360 | 1.0 | 4.0 | 0.00 | 0.00 | 0.00 | 61 | 1012.4 |
| 20260902045528 | 61 | 0 | 1.0 | 4.0 | 0.00 | 0.00 | 0.00 | 62 | 1012.3 |
| 20260902045028 | 61 | 360 | 0.0 | 2.0 | 0.00 | 0.00 | 0.00 | 61 | 1012.4 |
| 20260902044552 | 61 | 0 | 0.0 | 4.0 | 0.00 | 0.00 | 0.00 | 61 | 1012.4 |
| 20260902044025 | 62 | 360 | 1.0 | 6.0 | 0.00 | 0.00 | 0.00 | 61 | 1012.5 |
| 20260902043525 | 62 | 360 | 2.0 | 6.0 | 0.00 | 0.00 | 0.00 | 60 | 1012.4 |
| 20260902043050 | 62 | 360 | 3.0 | 5.0 | 0.00 | 0.00 | 0.00 | 59 | 1012.5 |
| 20260902042528 | 63 | 360 | 2.0 | 5.0 | 0.00 | 0.00 | 0.00 | 58 | 1012.3 |
| 20260902042029 | 63 | 360 | 1.0 | 5.0 | 0.00 | 0.00 | 0.00 | 56 | 1012.5 |
| 20260902041544 | 64 | 360 | 2.0 | 6.0 | 0.00 | 0.00 | 0.00 | 56 | 1012.4 |
| 20260902041024 | 64 | 360 | 3.0 | 6.0 | 0.00 | 0.00 | 0.00 | 56 | 1012.4 |
| 20260902040528 | 64 | 360 | 1.0 | 5.0 | 0.00 | 0.00 | 0.00 | 55 | 1012.4 |
| 20260902035526 | 64 | 0 | 1.0 | 5.0 | 0.00 | 0.00 | 0.00 | 56 | 1012.3 |
| 20260902035028 | 63 | 360 | 2.0 | 5.0 | 0.00 | 0.00 | 0.00 | 56 | 1012.3 |
| 20260902034550 | 63 | 0 | 0.0 | 4.0 | 0.00 | 0.00 | 0.00 | 56 | 1012.4 |
| 20260902034025 | 62 | 360 | 1.0 | 3.0 | 0.00 | 0.00 | 0.00 | 57 | 1012.3 |
| 20260902033529 | 62 | 0 | 0.0 | 0.0 | 0.00 | 0.00 | 0.00 | 56 | 1012.3 |
| 20260902033048 | 62 | 0 | 0.0 | 0.0 | 0.00 | 0.00 | 0.00 | 56 | 1012.2 |
| 20260902032529 | 62 | 0 | 0.0 | 0.0 | 0.00 | 0.00 | 0.00 | 56 | 1012.2 |
| 20260902032028 | 62 | 0 | 0.0 | 3.0 | 0.00 | 0.00 | 0.00 | 54 | 1012.1 |
| 20260902031550 | 63 | 0 | 0.0 | 3.0 | 0.00 | 0.00 | 0.00 | 54 | 1012.2 |
| 20260902031029 | 64 | 0 | 1.0 | 3.0 | 0.00 | 0.00 | 0.00 | 53 | 1012.1 |
| 20260902030525 | 65 | 0 | 0.0 | 5.0 | 0.00 | 0.00 | 0.00 | 51 | 1012.2 |
| 20260902030049 | 65 | 360 | 1.0 | 5.0 | 0.00 | 0.00 | 0.00 | 51 | 1012.3 |
| 20260902025528 | 65 | 360 | 1.0 | 4.0 | 0.00 | 0.00 | 0.00 | 51 | 1012.1 |
| 20260902025029 | 65 | 360 | 1.0 | 4.0 | 0.00 | 0.00 | 0.00 | 51 | 1012.0 |
| 20260902024556 | 66 | 360 | 1.0 | 4.0 | 0.00 | 0.00 | 0.00 | 50 | 1012.0 |
| 20260902024025 | 66 | 360 | 1.0 | 4.0 | 0.00 | 0.00 | 0.00 | 49 | 1012.0 |
| 20260902023525 | 66 | 0 | 2.0 | 4.0 | 0.00 | 0.00 | 0.00 | 50 | 1011.9 |
| 20260902023048 | 67 | 360 | 0.0 | 0.0 | 0.00 | 0.00 | 0.00 | 49 | 1011.8 |
| 20260902022526 | 67 | 0 | 0.0 | 0.0 | 0.00 | 0.00 | 0.00 | 50 | 1011.7 |
| 20260902022027 | 68 | 0 | 0.0 | 0.0 | 0.00 | 0.00 | 0.00 | 50 | 1011.7 |
| 20260902021546 | 68 | 0 | 0.0 | 0.0 | 0.00 | 0.00 | 0.00 | 49 | 1011.7 |
| 20260902021024 | 69 | 0 | 0.0 | 0.0 | 0.00 | 0.00 | 0.00 | 50 | 1011.8 |
| 20260902020524 | 69 | 0 | 0.0 | 1.0 | 0.00 | 0.00 | 0.00 | 47 | 1011.8 |
| 20260902020058 | 70 | 0 | 0.0 | 1.0 | 0.00 | 0.00 | 0.00 | 47 | 1011.8 |
| 20260902015525 | 71 | 0 | 0.0 | 1.0 | 0.00 | 0.00 | 0.00 | 47 | 1011.8 |
| 20260902015026 | 71 | 0 | 0.0 | 3.0 | 0.00 | 0.00 | 0.00 | 45 | 1011.7 |
| 20260902014547 | 71 | 0 | 0.0 | 3.0 | 0.00 | 0.00 | 0.00 | 44 | 1011.7 |
| 20260902014025 | 72 | 360 | 1.0 | 3.0 | 0.00 | 0.00 | 0.00 | 44 | 1011.7 |
| 20260902013525 | 72 | 0 | 0.0 | 2.0 | 0.00 | 0.00 | 0.00 | 44 | 1011.6 |
| 20260902013049 | 73 | 0 | 0.0 | 3.0 | 0.00 | 0.00 | 0.00 | 42 | 1011.4 |
| 20260902012524 | 73 | 0 | 1.0 | 3.0 | 0.00 | 0.00 | 0.00 | 42 | 1011.5 |
| 20260902012024 | 73 | 360 | 0.0 | 4.0 | 0.00 | 0.00 | 0.00 | 42 | 1011.6 |
| 20260902011550 | 73 | 0 | 0.0 | 4.0 | 0.00 | 0.00 | 0.00 | 42 | 1011.6 |
| 20260902011029 | 74 | 360 | 1.0 | 4.0 | 0.00 | 0.00 | 0.00 | 41 | 1011.6 |
| 20260902010528 | 74 | 360 | 0.0 | 3.0 | 0.00 | 0.00 | 0.00 | 40 | 1011.6 |
| 20260902010048 | 74 | 0 | 0.0 | 4.0 | 0.00 | 0.00 | 0.00 | 41 | 1011.7 |
| 20260902005525 | 74 | 360 | 0.0 | 4.0 | 0.00 | 0.00 | 0.00 | 41 | 1011.8 |
| 20260902005026 | 75 | 360 | 1.0 | 4.0 | 0.00 | 0.00 | 0.00 | 40 | 1011.8 |
| 20260902004550 | 75 | 0 | 0.0 | 1.0 | 0.00 | 0.00 | 0.00 | 42 | 1011.7 |
| 20260902004025 | 76 | 0 | 0.0 | 2.0 | 0.00 | 0.00 | 0.00 | 42 | 1011.8 |
| 20260902003525 | 76 | 0 | 0.0 | 3.0 | 0.00 | 0.00 | 0.00 | 39 | 1011.7 |
| 20260902003056 | 76 | 0 | 1.0 | 3.0 | 0.00 | 0.00 | 0.00 | 37 | 1011.7 |
| 20260902002525 | 76 | 360 | 0.0 | 2.0 | 0.00 | 0.00 | 0.00 | 36 | 1011.7 |
| 20260902002031 | 77 | 0 | 0.0 | 5.0 | 0.00 | 0.00 | 0.00 | 37 | 1011.8 |
| 20260902001554 | 77 | 0 | 1.0 | 5.0 | 0.00 | 0.00 | 0.00 | 37 | 1011.8 |
| 20260902001025 | 77 | 360 | 1.0 | 5.0 | 0.00 | 0.00 | 0.00 | 37 | 1011.9 |
| 20260902000530 | 77 | 0 | 0.0 | 4.0 | 0.00 | 0.00 | 0.00 | 38 | 1012.0 |
| 20260902000050 | 77 | 0 | 1.0 | 4.0 | 0.00 | 0.00 | 0.00 | 34 | 1012.0 |
| 20260901235525 | 77 | 360 | 1.0 | 4.0 | 0.00 | 0.00 | 0.00 | 35 | 1012.0 |
| 20260901235025 | 77 | 360 | 0.0 | 5.0 | 0.00 | 0.00 | 0.00 | 34 | 1012.0 |
| 20260901234551 | 77 | 360 | 1.0 | 8.0 | 0.00 | 0.00 | 0.00 | 35 | 1011.9 |
| 20260901234028 | 77 | 360 | 3.0 | 8.0 | 0.00 | 0.00 | 0.00 | 35 | 1011.9 |
| 20260901233527 | 77 | 360 | 3.0 | 9.0 | 0.00 | 0.00 | 0.00 | 36 | 1012.0 |
| 20260901233049 | 76 | 360 | 4.0 | 10.0 | 0.00 | 0.00 | 0.00 | 36 | 1012.0 |
| 20260901232532 | 76 | 360 | 4.0 | 10.0 | 0.00 | 0.00 | 0.00 | 38 | 1012.0 |
| 20260901232027 | 76 | 360 | 6.0 | 12.0 | 0.00 | 0.00 | 0.00 | 38 | 1012.1 |
| 20260901231550 | 75 | 360 | 2.0 | 12.0 | 0.00 | 0.00 | 0.00 | 38 | 1012.3 |
| 20260901231025 | 75 | 360 | 6.0 | 10.0 | 0.00 | 0.00 | 0.00 | 37 | 1012.5 |
| 20260901230527 | 75 | 360 | 2.0 | 6.0 | 0.00 | 0.00 | 0.00 | 38 | 1012.2 |
| 20260901225525 | 75 | 360 | 2.0 | 9.0 | 0.00 | 0.00 | 0.00 | 37 | 1012.1 |
| 20260901225028 | 76 | 360 | 0.0 | 9.0 | 0.00 | 0.00 | 0.00 | 37 | 1012.2 |
| 20260901224548 | 76 | 360 | 3.0 | 9.0 | 0.00 | 0.00 | 0.00 | 36 | 1012.2 |
| 20260901224029 | 76 | 360 | 1.0 | 8.0 | 0.00 | 0.00 | 0.00 | 37 | 1012.1 |
| 20260901223527 | 76 | 0 | 0.0 | 12.0 | 0.00 | 0.00 | 0.00 | 39 | 1012.2 |
| 20260901223050 | 76 | 360 | 2.0 | 12.0 | 0.00 | 0.00 | 0.00 | 38 | 1012.1 |
| 20260901222525 | 77 | 360 | 3.0 | 10.0 | 0.00 | 0.00 | 0.00 | 37 | 1012.1 |
| 20260901222024 | 78 | 360 | 3.0 | 8.0 | 0.00 | 0.00 | 0.00 | 35 | 1012.1 |
| 20260901221553 | 78 | 360 | 2.0 | 6.0 | 0.00 | 0.00 | 0.00 | 35 | 1012.0 |
| 20260901221028 | 79 | 360 | 1.0 | 8.0 | 0.00 | 0.00 | 0.00 | 35 | 1012.0 |
| 20260901220526 | 79 | 360 | 2.0 | 10.0 | 0.00 | 0.00 | 0.00 | 34 | 1012.0 |
| 20260901220113 | 80 | 39 | 2.0 | 10.0 | 0.00 | 0.00 | 0.00 | 35 | 1012.0 |
| 20260901215528 | 80 | 82 | 4.0 | 9.0 | 0.00 | 0.00 | 0.00 | 33 | 1012.1 |
| 20260901215026 | 81 | 42 | 3.0 | 5.0 | 0.00 | 0.00 | 0.00 | 32 | 1012.0 |
| 20260901214548 | 82 | 0 | 0.0 | 8.0 | 0.00 | 0.00 | 0.00 | 32 | 1011.9 |
| 20260901214027 | 82 | 0 | 2.0 | 8.0 | 0.00 | 0.00 | 0.00 | 32 | 1011.9 |
| 20260901213527 | 82 | 250 | 1.0 | 8.0 | 0.00 | 0.00 | 0.00 | 30 | 1011.8 |
| 20260901213047 | 82 | 242 | 0.0 | 3.0 | 0.00 | 0.00 | 0.00 | 31 | 1012.0 |
| 20260901212528 | 82 | 0 | 1.0 | 5.0 | 0.00 | 0.00 | 0.00 | 31 | 1012.0 |
| 20260901212027 | 82 | 0 | 1.0 | 8.0 | 0.00 | 0.00 | 0.00 | 32 | 1012.0 |
| 20260901211552 | 81 | 273 | 3.0 | 8.0 | 0.00 | 0.00 | 0.00 | 31 | 1012.0 |
| 20260901211026 | 81 | 226 | 2.0 | 6.0 | 0.00 | 0.00 | 0.00 | 31 | 1011.9 |
| 20260901210528 | 81 | 242 | 2.0 | 10.0 | 0.00 | 0.00 | 0.00 | 30 | 1012.0 |
| 20260901210045 | 81 | 208 | 4.0 | 10.0 | 0.00 | 0.00 | 0.00 | 30 | 1011.9 |
| 20260901205527 | 81 | 202 | 6.0 | 13.0 | 0.00 | 0.00 | 0.00 | 30 | 1012.0 |
| 20260901205026 | 81 | 239 | 7.0 | 14.0 | 0.00 | 0.00 | 0.00 | 30 | 1012.0 |
| 20260901204545 | 81 | 214 | 8.0 | 14.0 | 0.00 | 0.00 | 0.00 | 30 | 1012.0 |
| 20260901204027 | 81 | 205 | 3.0 | 13.0 | 0.00 | 0.00 | 0.00 | 31 | 1011.9 |
| 20260901203528 | 81 | 209 | 1.0 | 13.0 | 0.00 | 0.00 | 0.00 | 31 | 1011.8 |
| 20260901203044 | 82 | 234 | 9.0 | 13.0 | 0.00 | 0.00 | 0.00 | 30 | 1012.0 |
| 20260901202526 | 82 | 232 | 5.0 | 13.0 | 0.00 | 0.00 | 0.00 | 31 | 1012.0 |
| 20260901202025 | 82 | 0 | 1.0 | 12.0 | 0.00 | 0.00 | 0.00 | 31 | 1011.8 |
| 20260901201559 | 82 | 236 | 3.0 | 12.0 | 0.00 | 0.00 | 0.00 | 30 | 1012.0 |
| 20260901201026 | 82 | 255 | 3.0 | 14.0 | 0.00 | 0.00 | 0.00 | 31 | 1012.1 |
| 20260901200527 | 82 | 238 | 4.0 | 16.0 | 0.00 | 0.00 | 0.00 | 32 | 1012.1 |
| 20260901200050 | 82 | 286 | 8.0 | 16.0 | 0.00 | 0.00 | 0.00 | 32 | 1012.0 |
| 20260901195527 | 84 | 247 | 9.0 | 16.0 | 0.00 | 0.00 | 0.00 | 29 | 1012.0 |
| 20260901195028 | 84 | 219 | 9.0 | 16.0 | 0.00 | 0.00 | 0.00 | 31 | 1012.1 |
| 20260901194553 | 83 | 206 | 4.0 | 12.0 | 0.00 | 0.00 | 0.00 | 33 | 1012.1 |
| 20260901194025 | 83 | 237 | 5.0 | 16.0 | 0.00 | 0.00 | 0.00 | 32 | 1012.1 |
| 20260901193526 | 84 | 256 | 4.0 | 16.0 | 0.00 | 0.00 | 0.00 | 31 | 1012.1 |
| 20260901193043 | 84 | 244 | 8.0 | 18.0 | 0.00 | 0.00 | 0.00 | 31 | 1012.0 |
| 20260901192524 | 83 | 290 | 9.0 | 18.0 | 0.00 | 0.00 | 0.00 | 33 | 1012.1 |
| 20260901192025 | 83 | 254 | 10.0 | 18.0 | 0.00 | 0.00 | 0.00 | 32 | 1012.2 |
| 20260901191611 | 84 | 244 | 7.0 | 17.0 | 0.00 | 0.00 | 0.00 | 32 | 1012.2 |
| 20260901191026 | 84 | 277 | 5.0 | 16.0 | 0.00 | 0.00 | 0.00 | 31 | 1012.3 |
| 20260901190531 | 83 | 254 | 7.0 | 17.0 | 0.00 | 0.00 | 0.00 | 33 | 1012.3 |
| 20260901190048 | 83 | 258 | 6.0 | 18.0 | 0.00 | 0.00 | 0.00 | 33 | 1012.4 |
| 20260901185526 | 83 | 300 | 5.0 | 18.0 | 0.00 | 0.00 | 0.00 | 34 | 1012.4 |
| 20260901185025 | 83 | 242 | 10.0 | 17.0 | 0.00 | 0.00 | 0.00 | 33 | 1012.4 |
| 20260901184608 | 83 | 248 | 7.0 | 15.0 | 0.00 | 0.00 | 0.00 | 33 | 1012.5 |
| 20260901184030 | 83 | 224 | 4.0 | 16.0 | 0.00 | 0.00 | 0.00 | 34 | 1012.6 |
| 20260901183529 | 82 | 287 | 6.0 | 16.0 | 0.00 | 0.00 | 0.00 | 33 | 1012.6 |
| 20260901183053 | 82 | 288 | 7.0 | 16.0 | 0.00 | 0.00 | 0.00 | 34 | 1012.8 |